sat.trackr.live / text

‹ back to catalog

STARLINK-3998

NORAD 52610 · 2022-052N

PAYLOAD ACTIVE UNKNOWN

§ Identity

Operator
Country
US
Launch date
2022-05-14
Launch site
AFETR
Launch vehicle
Mass (kg)
RCS (m²)

Purposes: comms

External: N2YO · Heavens-Above · Gunter

§ Orbital elements

Epoch: 2026-09-20T04:08:50.308800Z

Period
93.79 min
Inclination
53.1590°
Eccentricity
0.0001184
Mean motion
15.35383894 rev/d
Perigee alt
459.0 km
Apogee alt
460.6 km
Semi-major
6,837.9 km
B*
-1.4064e-5
RAAN
117.8233°
Arg perigee
93.7519°
Mean anomaly
266.3619°
Rev number
24,031

§ Raw data

STARLINK-39981 52610U 22052N   26263.17280450 -.00000871  00000+0 -14064-4 0  99972 52610  53.1590 117.8233 0001184  93.7519 266.3619 15.35383894240314

JSON: /api/v1/satellites/52610 · /tle

For live sub-satellite position, see the globe view (requires WebGL).

§ Visibility from observer

Set your observer location to see the next 7 days of passes ≥ 10°. The values pass through the URL so the page stays shareable.

No JS? Fill the form by hand. The geolocation button needs JavaScript.